Weather History for PAQH - January, 2014

Change the Weather History Date:

Monday, January 13, 2014

  Actual Average (PABE) Record (PABE)
Temperature  
Mean Temperature 26 °F -  
Max Temperature 35 °F 12 °F 42 °F (1930)
Min Temperature 17 °F - -44 °F (1951)
Degree Days  
Heating Degree Days 39 59  
Month to date heating degree days 762  
Since 1 July heating degree days 6186  
Cooling Degree Days 0    
Month to date cooling degree days  
Year to date cooling degree days  
Moisture  
Dew Point 27 °F    
Average Humidity 89    
Maximum Humidity 100    
Minimum Humidity 76    
Precipitation  
Precipitation 0.00 in 0.03 in 0.65 in (1993)
Month to date precipitation 0.37  
Year to date precipitation 0.37  
Snow  
Snow 0.00 in 0.30 in 3.10 in (1993)
Month to date snowfall 4.4  
Since 1 July snowfall 33.7  
Snow Depth -    
Sea Level Pressure  
Sea Level Pressure 29.11 in    
Wind  
Wind Speed 20 mph (SE)    
Max Wind Speed 33 mph    
Max Gust Speed 40 mph    
Visibility 9 miles    
Events Rain , Snow    
T = Trace of Precipitation, MM = Missing Value Source: NWS Daily Summary

Daily Weather History Graph

Daily Weather History Graph

Search for Another Location

Airport or City:

Trip Planner

Search our weather history database for the weather conditions in past years. The results will help you decide how hot, cold, wet, or windy it might be!

Date:

Astronomy

Jan. 13, 2014 Rise Set
Actual Time 10:35 AM AKST 5:17 PM AKST
Civil Twilight 9:42 AM AKST 6:10 PM AKST
Nautical Twilight 8:49 AM AKST 7:03 PM AKST
Astronomical Twilight 7:59 AM AKST 7:53 PM AKST
Moon 3:48 PM AKST (1/13) 8:28 AM AKST (1/13)
Length of Visible Light 8h 27m
Length of Day
6h 41m
Waxing Gibbous, 95% of the Moon is Illuminated
Jan 13
Waxing Gibbous
Jan 15
Full
Jan 23
Last Quarter
Jan 30
New
Feb 6
First Quarter

Hourly Weather History & Observations

Time (AKST) Temp. Windchill Dew Point Humidity Pressure Visibility Wind Dir Wind Speed Gust Speed Precip Events Conditions
12:02 AM 28.4 °F 15.8 °F 26.6 °F 93% 29.11 in 2.5 mi ESE 18.4 mph - 0.00 in Snow Light Snow
12:29 AM 28.4 °F 16.2 °F 28.4 °F 100% 29.11 in 7.0 mi ESE 17.3 mph - 0.00 in Snow Light Snow
12:46 AM 30.2 °F 18.5 °F 28.4 °F 93% 29.11 in 8.0 mi ESE 17.3 mph - 0.00 in Snow Light Snow
12:56 AM 30.0 °F 18.3 °F 28.0 °F 92% 29.12 in 9.0 mi ESE 17.3 mph - 0.00 in Snow Light Snow
1:26 AM 30.2 °F 19.3 °F 28.4 °F 93% 29.12 in 10.0 mi ESE 15.0 mph - 0.00 in   Overcast
1:56 AM 30.9 °F 18.1 °F 28.9 °F 92% 29.13 in 10.0 mi SE 21.9 mph - 0.00 in   Overcast
3:56 AM 34.0 °F 21.0 °F 30.9 °F 89% 29.13 in 10.0 mi SE 26.5 mph - N/A   Overcast
4:56 AM 35.1 °F 21.2 °F 30.9 °F 85% 29.14 in 10.0 mi SSE 33.4 mph 40.3 mph 0.00 in Rain Light Rain
5:45 AM 33.8 °F 19.4 °F 30.2 °F 87% 29.13 in 10.0 mi SSE 33.4 mph 40.3 mph 0.00 in   Overcast
5:56 AM 34.0 °F 20.1 °F 30.9 °F 89% 29.14 in 10.0 mi SSE 31.1 mph 38.0 mph 0.00 in   Overcast
6:08 AM 33.8 °F 20.5 °F 30.2 °F 87% 29.14 in 10.0 mi SSE 27.6 mph - N/A   Overcast
6:56 AM 34.0 °F 20.8 °F 30.9 °F 89% 29.14 in 10.0 mi SSE 27.6 mph - N/A   Overcast
7:56 AM 34.0 °F 20.5 °F 30.9 °F 89% 29.15 in 10.0 mi SSE 28.8 mph - 0.00 in   Overcast
8:56 AM 34.0 °F 20.8 °F 30.9 °F 89% 29.16 in 10.0 mi SSE 27.6 mph - N/A   Overcast
9:56 AM 35.1 °F 23.0 °F 30.0 °F 82% 29.17 in 10.0 mi SSE 24.2 mph - N/A   Overcast
10:56 AM 34.0 °F 21.5 °F 30.0 °F 85% 29.17 in 8.0 mi SSE 24.2 mph 29.9 mph 0.00 in Rain Light Rain
11:11 AM 33.8 °F 21.6 °F 30.2 °F 87% 29.17 in 10.0 mi SSE 23.0 mph - 0.00 in   Overcast
11:44 AM 33.8 °F 21.9 °F 30.2 °F 87% 29.17 in 10.0 mi SSE 21.9 mph - 0.00 in   Overcast
11:56 AM 34.0 °F 22.7 °F 30.9 °F 89% 29.18 in 10.0 mi SE 19.6 mph - 0.00 in   Overcast
12:51 PM 33.8 °F 21.6 °F 30.2 °F 87% 29.17 in 1.5 mi SSE 23.0 mph - 0.00 in Snow Light Snow
12:56 PM 34.0 °F 23.0 °F 30.9 °F 89% 29.18 in 1.2 mi SSE 18.4 mph - 0.00 in Snow Light Snow
1:03 PM 33.8 °F 23.5 °F 30.2 °F 87% 29.17 in 2.0 mi SSE 16.1 mph - 0.00 in Snow Light Snow
1:20 PM 33.8 °F 23.5 °F 30.2 °F 87% 29.16 in 3.0 mi SSE 16.1 mph - 0.00 in Snow Light Snow
1:56 PM 34.0 °F 26.0 °F 30.0 °F 85% 29.16 in 9.0 mi SE 10.4 mph - 0.00 in Snow Light Snow
2:56 PM 35.1 °F 26.4 °F 28.0 °F 76% 29.13 in 10.0 mi ESE 12.7 mph - 0.00 in   Overcast
3:56 PM 33.1 °F 23.4 °F 28.0 °F 82% 29.12 in 10.0 mi ESE 13.8 mph - N/A   Mostly Cloudy
4:56 PM 30.0 °F 20.0 °F 27.0 °F 88% 29.11 in 10.0 mi ESE 12.7 mph - N/A   Clear
5:56 PM 28.9 °F 19.8 °F 26.1 °F 89% 29.08 in 10.0 mi East 10.4 mph - N/A   Clear
6:56 PM 19.9 °F 8.6 °F 17.1 °F 89% 29.07 in 10.0 mi NW 10.4 mph - N/A   Clear
7:56 PM 17.1 °F 3.0 °F 16.0 °F 96% 29.04 in 10.0 mi NNW 13.8 mph - N/A   Clear
8:25 PM 17.6 °F 2.2 °F 15.8 °F 93% 29.02 in 10.0 mi NNW 17.3 mph - N/A   Scattered Clouds
8:43 PM 17.6 °F 3.2 °F 15.8 °F 93% 29.02 in 10.0 mi NNW 15.0 mph - N/A   Overcast
8:56 PM 17.1 °F 1.5 °F 16.0 °F 96% 29.02 in 10.0 mi NNW 17.3 mph - N/A   Overcast
9:56 PM 18.0 °F 4.2 °F 17.1 °F 96% 29.00 in 9.0 mi NNW 13.8 mph - N/A   Overcast
10:56 PM 18.0 °F 4.2 °F 16.0 °F 92% 28.98 in 10.0 mi NW 13.8 mph - N/A   Overcast
11:56 PM 17.1 °F 3.0 °F 16.0 °F 96% 28.96 in 10.0 mi NW 13.8 mph - N/A   Overcast